Regional Weather Roundup
Issued by NWS Green Bay, WI

Home | Current Version | Previous Version | Text Only | Print | Product List | Glossary On
Versions: 1 2 3 4 5 6 7 8 9 10 11 12 13 14 15 16 17 18 19 20 21 22 23 24 25 26 27 28 29 30 31 32 33 34 35 36 37 38 39 40 41 42 43 44 45 46 47 48 49 50
000
ASUS43 KGRB 140011
RWRGRB

NORTH-CENTRAL AND NORTHEAST WISCONSIN REGIONAL WEATHER ROUNDUP
NATIONAL WEATHER SERVICE GREEN BAY WI
700 PM CDT THU MAY 13 2021

WIZ005-009-010>012-018-019-140100-
NORTH CENTRAL WISCONSIN

CITY           SKY/WX    TMP DP  RH WIND       PRES   REMARKS
IRONWOOD       PTSUNNY   64  26  23 NW5       30.22F
MANITOWISH WTR PTSUNNY   62  27  25 CALM      30.23S
ARBOR VITAE    PTSUNNY   63  26  24 CALM      30.23F
EAGLE RIVER    PTSUNNY   64  19  17 CALM      30.23F
LAND O LAKES   PTSUNNY   66  18  15 SW3       30.24F
RHINELANDER    CLOUDY    64  25  22 W9        30.24F
PHILLIPS       CLOUDY    65  30  27 SW8G18    30.23S
ANTIGO         PTSUNNY   59  31  34 SW7       30.26S
TOMAHAWK       CLOUDY    63  25  23 W6        30.25S
MERRILL        MOSUNNY   63  29  27 CALM      30.24S
$$

WIZ013-073-140100-
NORTHEAST WISCONSIN

CITY           SKY/WX    TMP DP  RH WIND       PRES   REMARKS
IRON MOUNTAIN  PTSUNNY   67  24  19 W10       30.21F
MARINETTE      MOSUNNY   63  34  33 S8        30.25F
OCONTO         MOSUNNY   64  36  36 S8        30.24S
$$

WIZ017-030-035>037-045-140100-
CENTRAL WISCONSIN

CITY           SKY/WX    TMP DP  RH WIND       PRES   REMARKS
MEDFORD        MOSUNNY   62  27  26 SW6       30.25S
WAUSAU         PTSUNNY   68  27  21 W8        30.23F
MOSINEE        MOSUNNY   64  28  25 SW10      30.26F
MARSHFIELD     MOSUNNY   64  27  24 W9        30.26S
WISC RAPIDS    PTSUNNY   66  31  27 SW3       30.27F
STEVENS POINT  CLOUDY    64  27  24 W7        30.27S
WAUPACA        CLOUDY    67  30  24 CALM      30.26S
SHAWANO        PTSUNNY   69  25  19 W7        30.25S
CLINTONVILLE   CLOUDY    66  26  22 SW6       30.25F
WAUTOMA        PTSUNNY   66  28  24 SW6       30.27S
$$

WIZ038-039-048-051-140100-
FOX VALLEY

CITY           SKY/WX    TMP DP  RH WIND       PRES   REMARKS
NWS GREEN BAY  MOSUNNY   68  30  24 S6        30.25F
APPLETON       PTSUNNY   55  28  35 SW8       30.25F
OSHKOSH        PTSUNNY   67  27  22 VRB5      30.26F
FOND DU LAC    PTSUNNY   66  29  24 SW5       30.27S
$$

WIZ022-050-052-140100-
EAST CENTRAL WISCONSIN

CITY           SKY/WX    TMP DP  RH WIND       PRES   REMARKS
EPHRAIM        FAIR      61  32  33 S9G17     30.25S
WASHINGTON ISL MOCLDY    55  36  50 S8        30.25S
STURGEON BAY   SUNNY     61  37  41 S10       30.26F
MANITOWOC      SUNNY     59  36  42 S8        30.28F
SHEBOYGAN      SUNNY     62  35  36 S7        30.28F
$$

LMZ563-521-522-541>543-140100-
LAKESHORE

STATION/POSITION TIME  TEMP    WIND        PRES    VSBY  WAVE
                       AIR SEA DIR/SP/G                  HT/PER
                 (UTC) (F)     (DEG/KT/KT) (MB)    (MI)  (FT/S)
SHEBOYGAN LKSHOR 0000   58     190/ 12/ 13   N/A
KEWAUNEE LKSHORE 2330   53     180/ 10/ 11 1023.7F
NORTHPORT PIER   2340   61     130/  4/ 11 1024.7F
CHAMBERS ISLAND  2340   64     120/  4/ 10   N/A
MENOMINEE LKSHOR 2330   60 53  160/ 12/ 15 1022.8F
$$



USA.gov is the U.S. government's official web portal to all federal, state and local government web resources and services.